Temperature
20 21 20 20 20 20 19 19 19 19 19 19 19 19 19 19 19 19 19 19 19 19 19 19 19 19 19 19 19 19 19 19 18 19 19 18 18 18 18 18 18 18 18
21 21 20 20 20 20 19 19 19 19 19 19 19 19 19 19 19 19 19 19 19 19 19 19 19 19 19 18 18 19 18 18 18 18 18 18 18 18 18 18 18 18 18
21 21 20 20 20 19 19 19 19 19 19 19 19 19 19 19 19 19 19 19 19 19 18 18 18 18 18 18 18 18 18 18 18 18 18 18 18 18 18 18 18 17 18
21 20 20 20 20 19 19 19 19 19 19 19 19 19 19 19 19 19 19 18 19 19 18 18 18 18 18 18 18 18 18 18 18 18 18 18 18 18 18 18 18 18 18
21 20 20 20 20 19 19 19 19 19 19 19 19 19 19 18 18 18 18 18 18 18 18 18 18 18 18 18 18 18 18 18 18 18 18 18 18 18 18 18 18 18 18
21 20 21 20 20 20 19 19 19 19 19 19 19 19 18 18 18 18 18 18 18 18 18 18 18 18 18 18 18 18 18 18 18 18 18 18 18 18 18 18 18 18 18
21 21 21 20 20 20 19 19 19 19 19 19 19 19 19 19 19 19 18 18 18 18 18 18 18 18 18 18 18 18 18 18 18 18 18 18 18 18 18 18 18 18 18
21 21 21 20 20 20 19 19 19 19 19 19 19 19 19 19 19 19 18 18 18 18 18 18 18 18 18 18 18 18 18 18 18 18 18 18 18 18 18 18 18 18 18
21 21 20 20 20 20 20 19 19 19 19 19 19 19 19 19 19 19 19 18 18 18 18 18 18 18 18 18 18 18 18 18 18 18 18 18 18 18 18 18 18 18 18
21 21 21 20 20 20 20 19 19 19 19 19 19 19 19 19 19 18 18 18 18 18 18 18 18 18 18 18 18 18 18 18 18 18 18 18 18 18 18 18 18 18 18
21 21 20 20 20 20 19 19 19 19 19 19 19 19 18 18 18 18 18 18 18 18 18 18 18 18 18 18 18 18 18 18 18 18 18 18 18 18 18 18 18 18 18
21 21 21 20 20 20 19 19 19 19 19 19 19 19 18 18 18 18 18 18 18 18 18 18 18 18 18 18 18 18 18 18 18 18 18 18 18 18 18 18 18 18 18
21 21 20 20 20 20 19 19 19 19 19 19 19 18 18 18 18 18 18 18 18 18 18 18 18 18 18 18 18 18 18 18 18 18 18 18 18 18 18 18 18 18 18
21 21 20 20 20 20 19 19 19 19 19 19 19 19 18 18 18 18 18 18 18 18 18 18 18 18 18 18 18 18 18 18 18 18 18 18 18 18 18 18 18 18 18
21 20 20 20 20 19 19 19 19 19 19 19 19 19 18 18 18 18 18 18 18 18 18 18 18 18 18 18 18 18 18 18 18 18 18 18 18 18 18 18 18 18 18
20 20 20 20 19 19 19 19 19 19 19 19 19 18 18 18 18 18 18 18 18 18 18 18 18 18 18 18 18 18 18 18 18 18 18 18 18 18 18 18 18 18 18
20 20 20 20 19 19 19 19 19 19 19 18 18 18 18 18 18 18 18 18 18 18 18 18 18 18 18 18 18 18 18 18 18 18 18 18 18 18 18 18 18 18 18
20 20 20 19 19 19 19 19 19 19 18 18 18 18 18 18 18 18 18 18 18 18 18 18 18 18 18 18 18 18 18 18 18 18 18 18 18 18 18 18 18 17 18
20 20 19 19 19 19 19 19 18 18 18 18 18 18 18 18 18 18 18 18 18 18 18 18 18 18 18 18 18 18 18 18 18 18 18 18 18 18 18 17 17 17 17
20 19 19 19 19 19 18 18 18 18 18 18 18 18 18 18 18 18 18 18 18 18 18 18 18 18 18 18 18 18 18 18 18 18 18 18 18 17 17 17 17 17 17
20 19 19 19 19 19 18 18 18 18 18 18 18 18 18 18 18 18 18 18 17 17 17 17 18 18 18 18 18 18 18 18 18 18 18 18 18 17 17 17 17 17 17
20 19 19 19 18 18 18 18 18 18 18 18 18 17 17 17 17 17 17 17 17 17 17 17 17 17 17 17 17 17 18 18 18 18 18 18 17 17 17 17 17 17 17
20 19 19 19 18 18 18 18 18 18 18 18 18 17 17 17 17 17 17 17 17 17 17 17 17 17 17 17 17 17 17 17 18 18 18 17 17 17 17 17 17 17 17
20 19 19 19 18 18 18 18 18 18 17 18 17 17 17 17 17 17 17 17 17 17 17 17 17 17 17 17 17 17 17 17 17 17 17 17 17 17 17 17 17 17 17
20 20 19 19 18 18 18 18 18 18 17 17 17 17 17 17 17 17 17 17 17 17 17 17 17 17 17 17 17 17 17 17 17 17 17 17 17 17 17 17 17 17 16
21 20 19 19 18 18 18 17 17 17 17 17 17 17 17 17 17 17 17 17 17 17 17 17 17 17 17 17 17 17 17 17 17 17 17 17 17 17 17 16 16 16 16
Wind_Speed
9 12 13 13 12 10 10 9 8 8 9 9 9 9 10 9 9 9 10 10 9 10 10 10 9 9 8 7 7 7 7 7 6 6 7 8 8 7 7 6 7 9 10
12 13 14 14 12 11 10 9 9 8 8 9 9 9 9 9 9 9 10 9 9 9 9 10 9 8 7 7 6 6 6 5 5 6 7 7 7 6 5 6 7 9 10
12 13 14 14 13 12 10 9 9 9 9 9 9 9 9 9 9 9 10 9 9 9 8 9 8 8 7 7 6 6 5 5 4 5 6 6 7 6 6 7 9 9 9
12 13 14 14 13 11 10 9 9 9 9 9 9 8 8 8 8 8 8 8 8 8 7 7 8 7 7 6 6 5 5 4 4 4 5 5 7 8 7 7 8 9 9
13 15 15 14 13 11 10 9 9 9 9 9 8 8 7 7 7 7 7 7 6 7 7 7 7 6 6 6 6 5 4 4 5 6 4 4 8 8 7 7 7 8 8
14 16 16 15 13 12 10 9 9 8 8 7 7 7 7 7 7 7 7 7 7 7 7 7 7 6 6 6 5 5 5 5 6 5 3 5 8 9 8 7 7 8 8
13 15 16 16 14 12 11 10 9 8 7 7 6 6 6 7 6 7 7 8 8 7 6 6 6 6 5 5 6 6 6 6 7 5 3 5 9 9 8 7 7 8 8
13 13 15 15 14 12 11 10 8 8 7 6 6 6 6 7 7 7 7 8 8 8 7 6 6 6 5 5 6 6 6 6 6 5 4 7 10 10 8 8 8 8 9
12 11 11 12 12 12 11 9 8 7 6 5 5 5 6 7 7 8 8 8 8 8 7 7 7 7 7 7 7 6 7 7 7 6 4 8 12 11 9 9 9 9 9
10 9 8 9 10 10 10 9 9 7 6 5 4 4 5 6 8 8 8 9 8 8 8 8 8 9 8 8 9 9 9 8 8 7 4 8 13 12 11 10 10 10 10
8 7 7 7 7 7 8 9 8 8 6 6 5 5 5 5 6 8 8 10 10 9 10 10 10 10 9 9 10 10 8 6 6 5 4 10 13 12 11 11 10 10 10
7 6 6 6 6 5 4 6 5 5 6 6 4 4 4 3 3 5 7 11 12 11 11 12 12 11 10 8 9 10 7 8 6 5 6 13 14 13 11 11 11 11 11
6 5 6 6 5 4 3 3 2 3 3 3 3 2 2 1 2 2 3 6 8 9 7 8 9 7 6 5 5 7 7 6 5 5 7 13 14 13 12 11 12 12 11
6 5 5 6 5 4 4 2 1 2 1 2 3 2 2 0 1 1 1 1 3 3 4 3 3 4 3 4 4 4 4 4 3 3 7 12 13 12 12 12 12 12 12
6 4 5 5 5 3 3 2 2 2 1 2 3 2 1 1 0 1 1 0 1 1 1 2 1 1 2 2 3 3 3 3 3 3 5 10 11 11 11 11 11 11 12
5 4 4 4 5 3 3 2 2 2 2 2 2 3 1 1 1 1 0 0 0 0 1 1 1 2 2 1 2 2 2 3 3 3 5 8 10 10 10 10 10 11 12
6 4 3 3 4 3 2 2 2 2 2 2 3 3 2 1 1 0 0 1 0 1 0 0 1 1 2 2 3 3 2 3 3 4 5 6 8 9 10 10 11 11 11
6 4 2 2 3 2 2 3 2 3 3 2 2 2 2 1 1 1 0 1 0 0 0 0 0 1 1 2 2 3 3 3 4 4 5 6 7 7 9 10 11 12 11
5 4 2 2 3 2 1 1 1 2 2 2 2 3 2 2 1 1 0 1 1 0 0 1 0 1 2 2 3 3 3 3 3 4 4 5 6 7 8 9 10 11 11
5 4 3 2 2 1 1 1 2 1 1 1 2 2 1 1 1 1 0 0 1 0 1 1 1 1 2 3 3 3 3 4 3 3 4 4 4 6 6 8 8 8 10
5 3 3 2 2 1 1 2 1 2 1 1 1 2 2 2 2 1 1 0 1 1 0 1 1 2 2 2 2 2 2 3 2 2 3 2 3 4 5 6 7 7 7
5 4 3 2 1 1 1 0 0 1 1 1 2 2 2 2 2 1 1 1 0 0 0 1 1 1 2 1 1 1 1 1 2 2 2 3 2 2 2 4 5 7 7
6 5 3 3 2 1 1 1 1 0 1 1 1 2 1 1 2 2 1 1 1 0 0 1 1 2 2 2 1 1 1 1 1 1 2 1 1 2 2 2 4 6 7
6 6 5 4 3 2 1 1 1 1 1 1 1 1 1 1 2 2 2 1 1 1 0 1 0 2 2 3 2 2 2 1 1 1 1 1 2 2 2 2 3 4 6
7 7 6 5 3 2 2 1 2 2 1 1 1 1 1 1 1 2 2 2 1 1 1 1 1 1 2 2 2 2 2 2 2 1 2 2 2 2 2 2 2 3 6
7 7 7 6 4 3 2 1 1 2 3 4 3 2 1 1 1 2 2 2 2 1 1 1 2 2 3 3 3 3 2 2 2 2 3 3 2 2 1 1 2 2 4
Wind_Direction
100 110 115 112 112 108 104 103 101 100 100 102 106 108 113 116 117 119 120 122 127 129 131 132 132 129 126 124 120 118 116 120 125 121 118 114 114 117 119 124 124 116 119
108 112 117 114 113 110 106 102 102 103 105 108 110 112 114 118 123 126 127 128 131 133 135 136 135 133 134 131 128 131 133 137 148 148 140 133 128 126 127 125 115 118 119
107 114 116 114 114 112 108 105 105 107 106 109 112 115 118 120 123 130 133 134 135 136 140 142 139 138 144 146 146 149 156 164 172 174 172 160 141 135 133 122 120 128 128
115 118 117 119 117 114 111 108 105 106 108 111 114 118 123 126 126 127 133 138 143 147 150 151 149 150 154 158 161 167 177 182 196 215 209 169 146 142 137 129 134 141 140
114 115 120 122 119 115 113 110 106 107 111 114 117 125 130 129 131 138 145 152 158 161 161 163 163 166 166 165 171 178 191 202 224 236 229 154 134 143 144 146 148 151 148
116 116 121 124 121 118 114 111 110 110 113 117 119 127 136 137 142 148 157 165 170 167 168 171 167 173 174 172 177 191 204 222 243 240 209 154 137 151 158 158 161 162 158
111 117 125 128 124 122 120 119 118 118 119 123 126 131 140 143 149 157 160 164 167 169 166 170 169 175 175 187 198 206 214 229 246 250 202 144 143 159 166 168 168 170 168
107 112 123 131 130 129 127 125 122 123 126 128 132 139 152 154 157 162 165 167 172 174 177 183 185 187 189 199 213 223 228 240 246 240 193 145 153 164 172 178 178 178 176
101 111 124 135 137 138 136 133 132 132 134 137 140 150 162 168 172 174 174 176 180 181 186 195 203 203 202 208 215 223 232 238 259 262 205 155 160 167 177 186 188 185 184
100 108 119 129 137 142 146 147 147 147 151 154 157 171 175 181 186 187 186 185 189 189 193 199 209 213 213 212 215 225 235 241 242 246 217 170 167 172 180 189 193 192 192
89 102 106 110 120 137 141 145 158 166 172 169 173 201 197 192 188 190 188 185 192 196 200 204 208 210 215 220 222 227 234 234 237 231 198 170 169 174 182 189 194 199 198
83 83 89 91 93 101 112 131 159 166 167 181 167 187 196 214 201 188 184 192 198 203 208 212 212 212 212 220 221 220 223 229 232 222 186 167 174 179 184 189 194 199 200
88 71 77 82 74 69 77 107 135 145 150 161 146 178 170 208 212 188 181 194 205 208 212 211 211 216 209 209 206 203 215 230 228 212 178 173 177 182 187 191 196 201 203
84 75 64 72 69 52 41 40 93 97 124 119 134 118 91 226 261 141 173 188 212 207 195 203 199 196 210 216 208 206 220 230 227 183 174 173 174 182 190 194 199 204 205
91 80 73 71 70 54 39 358 43 47 59 83 100 105 117 149 79 90 123 329 259 223 175 173 190 185 215 231 229 211 220 225 225 184 168 172 178 183 188 197 203 208 209
99 85 73 74 73 53 44 11 9 43 58 61 89 101 83 30 67 62 106 113 312 1 147 160 196 203 215 223 237 241 240 231 218 194 175 177 183 187 193 198 204 207 207
103 87 75 92 74 60 35 360 23 30 52 46 65 76 65 26 38 8 231 153 112 301 122 157 229 223 225 228 227 233 235 235 228 197 188 183 188 196 200 205 207 206 207
103 96 75 62 84 68 41 6 10 29 41 34 53 54 53 10 358 342 352 75 44 274 89 186 224 268 268 254 237 236 229 220 221 204 197 193 191 193 199 206 208 207 209
109 111 108 59 66 65 59 21 21 54 44 32 49 40 10 341 350 340 29 71 331 179 139 282 37 266 263 260 249 233 239 229 223 216 204 198 189 186 185 194 202 205 208
111 110 110 87 64 36 46 43 10 14 33 57 67 52 1 322 339 2 35 273 320 71 39 9 347 276 275 259 265 244 247 238 221 223 218 198 186 190 183 186 193 201 204
120 120 112 103 85 41 21 21 2 7 355 25 70 55 14 342 357 17 354 325 330 72 64 316 290 278 277 277 283 275 260 252 214 209 226 194 182 175 174 177 186 187 193
135 127 123 124 121 115 96 55 317 327 314 50 38 63 18 346 338 349 19 326 349 30 43 314 310 297 281 264 261 270 260 261 271 243 216 197 192 165 179 189 182 181 185
147 142 124 112 115 93 72 65 12 23 325 18 38 57 12 324 346 354 332 331 335 307 139 271 297 281 282 277 253 252 251 242 281 272 247 213 187 191 199 184 183 190 192
150 142 120 111 108 100 88 28 337 35 11 7 22 57 14 351 1 359 336 344 334 339 0 286 285 297 292 304 296 271 287 330 257 279 286 243 219 213 214 221 202 186 187
153 145 133 123 119 106 83 39 349 10 343 5 32 58 46 35 15 22 27 12 10 346 345 326 337 318 317 311 306 302 299 300 281 264 276 277 259 236 216 220 205 186 182
148 139 135 128 127 127 111 62 34 353 348 3 0 0 349 54 56 33 41 20 6 355 346 345 354 338 327 319 320 313 305 291 297 279 277 275 270 267 270 239 215 195 168
Height
1501 1501 1501 1501 1502 1503 1503 1504 1505 1505 1506 1507 1509 1510 1512 1513 1515 1517 1519 1520 1522 1524 1526 1528 1530 1531 1532 1534 1535 1536 1537 1539 1540 1541 1541 1542 1542 1543 1543 1544 1545 1545 1546
1502 1502 1502 1502 1503 1504 1505 1505 1506 1507 1507 1508 1510 1511 1513 1514 1516 1518 1520 1521 1523 1525 1527 1528 1530 1531 1533 1534 1535 1537 1538 1539 1540 1541 1542 1542 1543 1544 1544 1545 1545 1546 1547
1503 1503 1503 1504 1505 1505 1506 1507 1507 1508 1509 1510 1511 1512 1514 1515 1517 1518 1520 1522 1524 1525 1527 1529 1530 1532 1533 1534 1536 1537 1538 1539 1540 1541 1542 1543 1543 1544 1545 1545 1546 1546 1547
1505 1505 1505 1506 1507 1507 1508 1508 1509 1509 1510 1511 1512 1513 1514 1516 1517 1519 1521 1522 1524 1526 1528 1529 1531 1532 1534 1535 1536 1537 1539 1540 1541 1542 1543 1543 1544 1544 1545 1545 1546 1547 1547
1506 1507 1507 1508 1508 1509 1509 1509 1510 1510 1511 1512 1513 1514 1515 1517 1518 1520 1521 1523 1525 1526 1528 1529 1531 1532 1534 1535 1536 1537 1539 1540 1541 1542 1543 1544 1544 1545 1545 1545 1546 1547 1547
1508 1508 1509 1509 1510 1510 1511 1511 1511 1512 1512 1513 1514 1515 1516 1517 1518 1520 1521 1523 1524 1526 1528 1529 1530 1532 1533 1535 1536 1538 1539 1540 1541 1542 1543 1544 1544 1545 1545 1545 1546 1546 1547
1510 1510 1510 1511 1511 1512 1512 1512 1513 1513 1514 1514 1514 1515 1516 1517 1519 1520 1522 1523 1524 1526 1528 1529 1531 1532 1533 1534 1536 1537 1539 1539 1541 1542 1543 1543 1544 1544 1545 1545 1546 1546 1547
1511 1511 1512 1512 1513 1513 1513 1514 1514 1514 1515 1515 1515 1516 1516 1518 1519 1521 1522 1523 1524 1526 1527 1529 1530 1532 1533 1534 1536 1537 1538 1539 1540 1541 1542 1543 1543 1544 1544 1545 1545 1546 1547
1513 1514 1514 1514 1514 1515 1515 1515 1515 1516 1516 1516 1517 1517 1517 1519 1520 1521 1522 1523 1524 1526 1527 1528 1530 1531 1532 1534 1535 1536 1538 1538 1539 1540 1541 1542 1542 1543 1543 1544 1545 1545 1546
1515 1515 1516 1516 1516 1516 1516 1517 1517 1517 1517 1518 1518 1518 1519 1519 1521 1522 1523 1524 1525 1526 1527 1528 1529 1531 1532 1533 1534 1535 1537 1538 1538 1539 1540 1540 1541 1542 1542 1543 1543 1544 1545
1517 1518 1518 1518 1518 1518 1518 1518 1518 1518 1518 1519 1519 1519 1520 1520 1521 1522 1523 1524 1525 1525 1526 1527 1528 1529 1531 1532 1533 1535 1535 1536 1537 1538 1538 1539 1540 1540 1541 1541 1542 1543 1544
1518 1519 1519 1519 1520 1520 1520 1520 1519 1519 1519 1520 1519 1520 1520 1521 1522 1522 1523 1524 1524 1525 1526 1527 1528 1528 1529 1531 1532 1533 1534 1535 1536 1536 1537 1537 1538 1539 1540 1540 1541 1542 1543
1520 1520 1520 1520 1520 1521 1521 1521 1521 1521 1520 1520 1520 1521 1521 1521 1522 1522 1523 1524 1524 1525 1525 1526 1526 1527 1528 1529 1531 1532 1532 1533 1534 1534 1535 1535 1536 1537 1538 1539 1539 1540 1541
1520 1521 1521 1521 1521 1521 1521 1522 1522 1521 1521 1521 1521 1521 1521 1521 1522 1522 1523 1524 1524 1525 1525 1525 1526 1527 1528 1529 1530 1531 1531 1532 1533 1533 1533 1534 1534 1535 1536 1536 1537 1538 1539
1521 1521 1522 1522 1521 1521 1521 1521 1522 1522 1522 1522 1521 1521 1522 1522 1522 1522 1523 1523 1524 1524 1524 1525 1526 1526 1527 1528 1529 1530 1530 1531 1531 1532 1532 1532 1532 1533 1534 1534 1535 1536 1537
1521 1522 1522 1522 1522 1521 1521 1521 1522 1522 1521 1522 1521 1521 1521 1522 1522 1522 1522 1522 1523 1523 1523 1524 1525 1525 1526 1526 1527 1528 1529 1529 1530 1530 1530 1530 1530 1531 1532 1533 1533 1534 1534
1522 1522 1522 1523 1522 1521 1521 1522 1522 1522 1522 1521 1521 1521 1521 1521 1521 1521 1521 1521 1522 1522 1523 1523 1523 1524 1525 1525 1526 1526 1527 1528 1528 1528 1528 1528 1528 1529 1529 1530 1531 1531 1532
1522 1522 1522 1523 1522 1522 1521 1521 1522 1522 1522 1521 1521 1521 1521 1521 1521 1521 1521 1521 1521 1522 1522 1522 1522 1523 1523 1524 1524 1525 1525 1526 1526 1526 1527 1527 1527 1527 1527 1527 1528 1529 1530
1522 1522 1522 1522 1522 1522 1521 1521 1522 1521 1521 1521 1521 1520 1520 1520 1520 1520 1520 1520 1521 1521 1522 1522 1521 1522 1522 1522 1523 1523 1523 1524 1524 1524 1525 1525 1525 1525 1525 1525 1525 1526 1527
1522 1522 1522 1522 1521 1521 1521 1521 1521 1521 1521 1521 1520 1519 1519 1519 1519 1519 1520 1520 1520 1521 1521 1521 1521 1521 1521 1521 1521 1521 1521 1522 1522 1523 1523 1523 1523 1523 1523 1522 1523 1523 1523
1521 1521 1521 1520 1520 1521 1521 1520 1520 1520 1520 1520 1519 1519 1518 1518 1519 1519 1519 1519 1520 1520 1520 1520 1520 1519 1520 1520 1520 1520 1520 1520 1520 1521 1521 1521 1521 1521 1520 1520 1520 1520 1521
1520 1520 1519 1519 1519 1520 1520 1520 1521 1521 1520 1520 1519 1518 1518 1518 1518 1518 1518 1518 1519 1519 1519 1519 1518 1518 1519 1519 1519 1518 1519 1520 1518 1519 1519 1519 1519 1519 1518 1518 1518 1518 1518
1519 1519 1519 1518 1518 1519 1520 1520 1521 1520 1520 1520 1519 1518 1518 1517 1517 1517 1517 1517 1518 1518 1518 1518 1517 1517 1518 1518 1518 1518 1518 1517 1517 1517 1516 1517 1517 1516 1515 1515 1515 1515 1515
1518 1519 1518 1518 1519 1519 1520 1520 1520 1520 1519 1519 1519 1518 1517 1517 1516 1517 1517 1517 1517 1517 1517 1517 1517 1517 1517 1517 1517 1517 1517 1517 1517 1515 1515 1515 1515 1514 1513 1513 1512 1512 1513
1518 1518 1518 1518 1519 1519 1519 1519 1520 1520 1519 1519 1519 1518 1517 1516 1516 1516 1516 1516 1516 1516 1516 1516 1516 1516 1516 1516 1516 1515 1515 1515 1515 1515 1514 1513 1513 1512 1511 1510 1510 1510 1510
1517 1518 1518 1518 1518 1519 1519 1519 1519 1519 1519 1519 1518 1517 1517 1516 1516 1516 1515 1515 1515 1515 1515 1515 1515 1515 1514 1514 1514 1514 1514 1514 1513 1513 1512 1511 1510 1510 1509 1508 1507 1507 1507